Location: Limerick
(52.6650°N, 8.6230°W)
Time: 19:20:02
(UTC+01:00)

ISS - Pass Details

Date: 28 May 2017
Orbit: 402 x 408 km, 51.6° (Epoch: 29 May)

Event Time Altitude Azimuth Distance (km) Brightness Sun altitude
Rises 23:45:41 0° 264° (W) 2,333 0.3 -12.2°
Reaches altitude 10° 23:47:46 10° 262° (W) 1,472 -0.8 -12.3°
Maximum altitude 23:51:04 75° 178° (S) 426 -3.9 -12.6°
Drops below altitude 10° 23:54:21 10° 92° (E) 1,469 -1.2 -12.8°
Enters shadow 23:56:00 - 91° (E) 2,148 -0.4 -12.8°
